#timestamp,LO_Frequency,Hit,StdDev 
1645866015.2,286046998.2,N
1645866035.0,286046999.4,N
1645866036.0,286046999.4,N
1645866055.8,286046998.6,N
1645866075.6,286046998.9,N
1645866095.5,286046998.3,N
1645866115.3,286046998.1,N
1645866135.1,286047000.1,N
1645866155.9,286047000.4,N
1645866175.7,286047000.6,N
1645866195.6,286047000.8,N
1645866215.4,286046998.7,N
1645866235.2,286046999.1,N
1645866255.1,286046999.0,N
1645866256.0,286046999.0,N
1645866275.8,286046997.5,N
1645866295.6,286046996.7,N
1645866315.5,286046998.7,N
1645866335.3,286047000.7,N
1645866355.2,286047001.2,N
1645866375.9,286047000.8,N
1645866395.7,286046999.3,N
1645866415.6,286046999.1,N
1645866435.4,286046999.3,N
1645866455.2,286046999.4,N
1645866475.1,286046999.1,N
1645866476.0,286046999.1,N
1645866495.8,286046998.7,N
1645866515.7,286047000.5,N
1645866535.5,286047000.4,N
1645866555.3,286047002.7,N
1645866575.2,286047000.4,N
1645866595.0,286047001.0,N
1645866595.9,286047001.0,N
1645866615.8,286047002.8,N
1645866635.6,286047000.0,N
1645866655.4,286047000.5,N
1645866675.3,286046998.8,N
1645866695.1,286047000.6,N
1645866715.8,286047000.2,N
1645866735.7,286047000.2,N
1645866755.5,286047002.6,N
1645866775.4,286047002.4,N
1645866795.2,286047002.7,N
1645866815.0,286047001.8,N
1645866815.9,286047001.8,N
1645866835.8,286047003.5,N
1645866855.6,286047004.1,N
1645866875.5,286047002.1,N
1645866895.3,286047004.3,N
1645866915.1,286047001.7,N
1645866935.9,286047001.6,N
1645866955.7,286047000.4,N
1645866975.6,286046999.9,N
1645866995.4,286046998.3,N
1645867015.2,286046998.3,N
1645867035.1,286046998.7,N
1645867036.0,286046998.7,N
1645867055.8,286046999.2,N
1645867075.7,286047000.8,N
1645867095.5,286046998.1,N
1645867115.3,286047000.6,N
1645867135.2,286046998.4,N
1645867155.0,286046995.7,N
1645867155.9,286046995.7,N
1645867175.8,286046993.7,N
1645867195.6,286046997.7,N
1645867215.4,286046996.6,N
1645867235.3,286046999.8,N
1645867255.1,286047000.5,N
1645867275.9,286047002.6,N
1645867295.7,286046999.8,N
1645867315.5,286046999.7,N
1645867335.4,286047001.4,N
1645867355.2,286047002.5,N
1645867375.1,286047000.1,N
1645867376.0,286047000.1,N
1645867395.8,286047000.1,N
1645867415.6,286047000.7,N
1645867435.5,286046998.9,N
1645867455.3,286047001.2,N
1645867475.1,286046999.0,N
1645867495.9,286046998.3,N
1645867515.7,286046998.1,N
1645867535.6,286047001.1,N
1645867555.4,286047002.8,N
1645867575.2,286047001.0,N
1645867595.1,286047000.6,N
1645867596.0,286047000.6,N
1645867615.8,286047000.5,N
1645867635.7,286047002.8,N
1645867655.5,286047002.6,N
1645867675.3,286046999.8,N
1645867695.2,286047000.6,N
1645867715.0,286047000.2,N
1645867715.9,286047000.2,N
1645867735.8,286047000.6,N
1645867755.6,286047000.2,N
1645867775.4,286047001.1,N
1645867795.3,286047000.7,N
1645867815.1,286046998.1,N
1645867835.8,286046998.7,N
1645867855.7,286046998.5,N
1645867875.5,286047001.1,N
1645867895.4,286046998.6,N
1645867915.2,286046998.8,N
1645867935.0,286047000.5,N
1645867935.9,286047000.5,N
1645867955.8,286047001.0,N
1645867975.6,286046999.8,N
1645867995.5,286047000.8,N
1645868015.3,286046999.3,N
1645868035.1,286046999.6,N
1645868055.9,286046998.8,N
1645868075.7,286046999.2,N
1645868095.6,286046999.2,N
1645868115.4,286046999.3,N
1645868135.2,286046999.5,N
1645868155.1,286046999.2,N
1645868156.0,286046999.2,N
1645868175.8,286046999.3,N
1645868195.6,286046999.6,N
1645868215.5,286046999.6,N
1645868235.3,286046998.4,N
1645868255.2,286046998.9,N
1645868275.9,286046999.5,N
1645868295.7,286046999.0,N
1645868315.6,286046998.8,N
1645868335.4,286046999.4,N
1645868355.2,286046998.4,N
1645868375.1,286046998.6,N
1645868376.0,286046998.6,N
1645868395.8,286046998.7,N
1645868415.7,286046998.5,N
1645868435.5,286046997.3,Y
1645868455.3,286046999.0,P
1645868475.2,286046998.7,P
1645868495.0,286046998.4,P
1645868495.9,286046998.4,Y
1645868515.8,286046998.6,P
1645868535.6,286047001.0,P
1645868555.4,286047001.2,N
1645868575.3,286047000.8,N
1645868595.1,286046998.2,N
1645868615.8,286047000.6,N
1645868635.7,286047000.6,N
1645868655.5,286047000.8,N
1645868675.4,286047000.7,N
1645868695.2,286046998.6,N
1645868715.0,286046998.2,N
1645868715.9,286046998.2,N
1645868735.8,286047000.8,N
1645868755.6,286046998.2,N
1645868775.5,286046999.1,N
1645868795.3,286046997.1,N
1645868815.1,286046996.8,N
1645868835.9,286046998.9,N
1645868855.7,286046999.0,N
1645868875.5,286046997.8,N
1645868895.4,286046997.5,N
1645868915.2,286046997.5,N
1645868935.1,286046997.5,N
1645868936.0,286046997.5,N
1645868955.8,286046995.3,Y
1645868975.6,286046997.8,P
1645868995.5,286046996.6,P
1645869015.3,286046996.7,P
1645869035.2,286046999.2,N
1645869055.9,286046996.7,Y
1645869075.7,286046998.1,P
1645869095.6,286047000.8,P
1645869115.4,286047001.1,N
1645869135.2,286046998.7,N
1645869155.1,286046998.6,N
1645869156.0,286046998.6,N
1645869175.8,286046998.6,N
1645869195.7,286047001.0,N
1645869215.5,286046998.2,N
1645869235.3,286046996.5,N
1645869255.2,286046996.9,N
1645869275.0,286046998.7,N
1645869275.9,286046998.7,N
1645869295.7,286046998.9,N
1645869315.6,286046998.9,N
1645869335.4,286046998.5,N
1645869355.3,286046998.1,N
1645869375.1,286047001.2,N
1645869376.0,286047001.2,N
1645869395.8,286047000.8,N
1645869415.7,286047001.0,N
1645869435.5,286047000.6,N
1645869455.3,286046998.2,N
1645869475.2,286047001.1,N
1645869495.0,286046998.9,N
1645869495.9,286046998.9,N
1645869515.8,286046999.3,N
1645869535.6,286046999.5,N
1645869555.4,286046999.3,N
1645869575.3,286046997.2,N
1645869595.1,286046997.1,N
